Погода в Лузиании

Бразилия     16°15′01″S   47°55′35″W
темп.,
°C
ветер,
м/с
пор.,
м/с
влажн.,
%
обл.,
%
осадки,
мм/ч
давл.,
гПа
погр.,
м
27 февраля, сб
сб2700:00+18всв2697100 0.0 1013230
03:00+18св3897100 0.3 1012385
06:00+18всв4997100 0.8 1012479
09:00+20св4792100 0.9 1014579
12:00+23св578483 3.1 1014822
15:00+22св369086 9.6 1011479
18:00+19св2696100 5.8 1011247
21:00+19всв3698100 12.5 1012277
28 февраля, вс
вс2800:00+18св2798100 4.8 1013350
03:00+18св2898100 7.3 1011389
06:00+18всв1796100 2.1 1012391
09:00+19всв2694100 2.2 1014357
12:00+24всв458095 0.9 10131044
15:00+24всв468196 3.9 1010979
18:00+21всв379298 3.1 1009276
21:00+20всв379499 5.3 1011222
1 марта, пн
пн100:00+19в3895100 1.9 1012270
03:00+18в2696100 3.3 1011208
06:00+18в2897100 0.0 1012351
09:00+21всв5108897 0.0 1013644
12:00+24всв577598 0.1 1012990
15:00+25всв467190 0.6 10091127
18:00+22всв3786100 0.4 1009318
21:00+19всв3894100 0.5 1011326
2 марта, вт
вт200:00+19всв2696100 0.1 1013243
03:00+18в31097100 0.8 1012365
06:00+18в31095100 0.1 1013503
09:00+21всв488698 0.1 1015681
12:00+25всв577260 0.0 1014983
15:00+26в467158 0.1 10101143
18:00+23в488590 0.4 1010616
21:00+20в399379 0.6 1014350
3 марта, ср
ср300:00+18всв2891100 0.1 1015274
03:00+17всв129285 0.1 101425
06:00+17всв2290100 0.0 101551
09:00+22всв487876 0.0 1017731
12:00+25всв466750 0.0 10161040
15:00+26в446662 0.1 10131195
18:00+23в368395 0.3 1012244
21:00+19в389098 0.3 1015225